• In Hungary
  • List of Countries
  • For 7 days
  • Water Temperature
  • Satellite Maps
  • Weather Map
  • News
  • Weather Widgets
  • user-avatar
    Login

    Hourly Weather Chocieborz

    Today, 16 July, Monday

    Time Temperature Precipitation Wind Pressure Humidity
    00:00 +16°C° 0 mm 1 mps 733 mmHg 78%
    01:00 +16°C° 0 mm 2 mps 732 mmHg 75%
    02:00 +15°C° 0 mm 2 mps 732 mmHg 75%
    03:00 +15°C° 0 mm 2 mps 732 mmHg 75%
    04:00 +14°C° 0 mm 2 mps 732 mmHg 76%
    05:00 +16°C° 0 mm 2 mps 732 mmHg 73%
    06:00 +18°C° 0 mm 2 mps 732 mmHg 70%
    07:00 +19°C° 0 mm 2 mps 732 mmHg 68%
    08:00 +21°C° 0.1 mm 2 mps 732 mmHg 65%
    09:00 +22°C° 0.1 mm 3 mps 732 mmHg 61%
    10:00 +25°C° 0.1 mm 3 mps 732 mmHg 58%
    11:00 +25°C° 0.1 mm 3 mps 732 mmHg 55%
    12:00 +26°C° 0.1 mm 3 mps 732 mmHg 53%
    13:00 +27°C° 0.1 mm 3 mps 731 mmHg 50%
    14:00 +27°C° 0.2 mm 3 mps 731 mmHg 51%
    15:00 +26°C° 0.2 mm 3 mps 731 mmHg 53%
    16:00 +26°C° 0.2 mm 3 mps 730 mmHg 54%
    17:00 +25°C° 0.1 mm 2 mps 730 mmHg 61%
    18:00 +24°C° 0.1 mm 2 mps 730 mmHg 68%
    19:00 +22°C° 0.1 mm 1 mps 730 mmHg 74%
    20:00 +21°C° 0.2 mm 1 mps 729 mmHg 77%
    21:00 +20°C° 0.2 mm 1 mps 729 mmHg 79%
    22:00 +19°C° 0.2 mm 1 mps 729 mmHg 81%
    23:00 +18°C° 0.1 mm 1 mps 729 mmHg 83%

    Tomorrow, 17 July, Tuesday

    Time Temperature Precipitation Wind Pressure Humidity
    00:00 +17°C° 0.1 mm 2 mps 729 mmHg 84%
    01:00 +16°C° 0.1 mm 2 mps 729 mmHg 86%
    02:00 +16°C° 0 mm 2 mps 729 mmHg 87%
    03:00 +16°C° 0 mm 2 mps 729 mmHg 88%
    04:00 +16°C° 0 mm 2 mps 729 mmHg 89%
    05:00 +17°C° 0 mm 3 mps 729 mmHg 87%
    06:00 +18°C° 0 mm 4 mps 729 mmHg 84%
    07:00 +19°C° 0 mm 4 mps 729 mmHg 82%
    08:00 +20°C° 0.3 mm 5 mps 729 mmHg 81%
    09:00 +20°C° 0.3 mm 5 mps 729 mmHg 80%
    10:00 +20°C° 0.3 mm 6 mps 729 mmHg 79%
    11:00 +20°C° 0.4 mm 6 mps 729 mmHg 79%
    12:00 +20°C° 0.4 mm 6 mps 729 mmHg 79%
    13:00 +20°C° 0.4 mm 7 mps 729 mmHg 78%
    14:00 +20°C° 0.1 mm 7 mps 729 mmHg 78%
    15:00 +20°C° 0.1 mm 7 mps 729 mmHg 78%
    16:00 +20°C° 0.1 mm 7 mps 729 mmHg 78%
    17:00 +19°C° 0.1 mm 6 mps 729 mmHg 80%
    18:00 +17°C° 0.1 mm 5 mps 729 mmHg 83%
    19:00 +17°C° 0.1 mm 5 mps 729 mmHg 85%
    20:00 +16°C° 0 mm 5 mps 729 mmHg 87%
    21:00 +17°C° 0 mm 4 mps 729 mmHg 88%
    22:00 +15°C° 0 mm 4 mps 729 mmHg 90%
    23:00 +15°C° 0 mm 4 mps 729 mmHg 90%

    Day after tomorrow, 18 July, Wednesday

    Time Temperature Precipitation Wind Pressure Humidity
    00:00 +15°C° 0 mm 4 mps 729 mmHg 91%
    01:00 +15°C° 0 mm 4 mps 729 mmHg 91%
    02:00 +15°C° 0.1 mm 4 mps 729 mmHg 91%
    03:00 +15°C° 0.1 mm 5 mps 729 mmHg 91%
    04:00 +15°C° 0.1 mm 5 mps 729 mmHg 92%
    05:00 +16°C° 0.5 mm 5 mps 729 mmHg 91%
    06:00 +16°C° 0.5 mm 5 mps 729 mmHg 91%
    07:00 +16°C° 0.5 mm 5 mps 729 mmHg 91%
    08:00 +17°C° 1 mm 6 mps 729 mmHg 89%
    09:00 +17°C° 1 mm 6 mps 730 mmHg 87%
    10:00 +17°C° 1 mm 6 mps 730 mmHg 85%
    11:00 +19°C° 1.1 mm 6 mps 730 mmHg 85%
    12:00 +19°C° 1.1 mm 5 mps 730 mmHg 85%
    13:00 +19°C° 1.1 mm 5 mps 730 mmHg 86%
    14:00 +19°C° 1.1 mm 4 mps 730 mmHg 86%
    15:00 +19°C° 1.1 mm 4 mps 730 mmHg 86%
    16:00 +19°C° 1.1 mm 4 mps 730 mmHg 86%
    17:00 +19°C° 0.4 mm 4 mps 730 mmHg 87%
    18:00 +19°C° 0.4 mm 4 mps 730 mmHg 89%
    19:00 +19°C° 0.4 mm 3 mps 730 mmHg 90%
    20:00 +18°C° 0.2 mm 4 mps 730 mmHg 91%
    21:00 +18°C° 0.2 mm 4 mps 731 mmHg 92%
    22:00 +18°C° 0.2 mm 4 mps 731 mmHg 92%
    23:00 +17°C° 0.1 mm 4 mps 731 mmHg 92%

    19 July, Thursday

    Time Temperature Precipitation Wind Pressure Humidity
    00:00 +17°C° 0.1 mm 4 mps 731 mmHg 92%
    01:00 +17°C° 0.1 mm 4 mps 731 mmHg 92%
    02:00 +17°C° 0.1 mm 4 mps 731 mmHg 92%
    03:00 +16°C° 0.1 mm 5 mps 731 mmHg 93%
    04:00 +16°C° 0.1 mm 5 mps 731 mmHg 93%
    05:00 +16°C° 0.2 mm 5 mps 731 mmHg 92%
    06:00 +16°C° 0.2 mm 6 mps 731 mmHg 90%
    07:00 +16°C° 0.2 mm 6 mps 731 mmHg 89%
    08:00 +17°C° 0.3 mm 6 mps 731 mmHg 88%
    09:00 +17°C° 0.3 mm 6 mps 732 mmHg 86%
    10:00 +17°C° 0.3 mm 6 mps 732 mmHg 85%
    11:00 +19°C° 0.5 mm 5 mps 732 mmHg 83%
    12:00 +19°C° 0.5 mm 5 mps 732 mmHg 81%
    13:00 +20°C° 0.5 mm 5 mps 732 mmHg 79%
    14:00 +20°C° 0.1 mm 5 mps 732 mmHg 77%
    15:00 +21°C° 0.1 mm 4 mps 732 mmHg 75%
    16:00 +22°C° 0.1 mm 4 mps 732 mmHg 73%
    17:00 +21°C° 0 mm 3 mps 732 mmHg 76%
    18:00 +20°C° 0 mm 3 mps 732 mmHg 80%
    19:00 +20°C° 0 mm 2 mps 732 mmHg 83%
    20:00 +19°C° 0 mm 2 mps 732 mmHg 86%
    21:00 +18°C° 0 mm 2 mps 732 mmHg 89%
    22:00 +17°C° 0 mm 2 mps 733 mmHg 91%
    23:00 +16°C° 0 mm 2 mps 733 mmHg 92%

    20 July, Friday

    Time Temperature Precipitation Wind Pressure Humidity
    00:00 +16°C° 0 mm 2 mps 733 mmHg 93%
    01:00 +16°C° 0 mm 2 mps 732 mmHg 93%
    02:00 +15°C° 0 mm 2 mps 732 mmHg 92%
    03:00 +15°C° 0 mm 2 mps 732 mmHg 92%
    04:00 +14°C° 0 mm 2 mps 732 mmHg 91%
    05:00 +15°C° 0 mm 2 mps 732 mmHg 85%
    06:00 +17°C° 0 mm 3 mps 732 mmHg 79%
    07:00 +18°C° 0 mm 3 mps 732 mmHg 73%
    08:00 +19°C° 0 mm 3 mps 732 mmHg 66%
    09:00 +21°C° 0 mm 3 mps 733 mmHg 60%
    10:00 +22°C° 0 mm 3 mps 733 mmHg 53%
    11:00 +24°C° 0 mm 3 mps 732 mmHg 50%
    12:00 +25°C° 0 mm 3 mps 732 mmHg 47%
    13:00 +25°C° 0 mm 2 mps 732 mmHg 45%
    14:00 +25°C° 0 mm 2 mps 732 mmHg 45%
    15:00 +26°C° 0 mm 2 mps 731 mmHg 45%
    16:00 +26°C° 0 mm 2 mps 731 mmHg 45%
    17:00 +24°C° 0 mm 2 mps 731 mmHg 51%
    18:00 +23°C° 0 mm 1 mps 731 mmHg 57%
    19:00 +21°C° 0 mm 1 mps 730 mmHg 63%
    20:00 +20°C° 0 mm 1 mps 731 mmHg 66%
    21:00 +19°C° 0 mm 1 mps 731 mmHg 68%
    22:00 +16°C° 0 mm 1 mps 731 mmHg 70%
    23:00 +16°C° 0 mm 1 mps 731 mmHg 71%

    21 July, Saturday

    Time Temperature Precipitation Wind Pressure Humidity
    00:00 +15°C° 0 mm 1 mps 731 mmHg 71%
    01:00 +15°C° 0 mm 1 mps 730 mmHg 71%
    02:00 +15°C° 0 mm 1 mps 730 mmHg 72%
    03:00 +15°C° 0 mm 1 mps 730 mmHg 72%
    04:00 +14°C° 0 mm 1 mps 730 mmHg 72%
    05:00 +16°C° 0 mm 1 mps 730 mmHg 70%
    06:00 +17°C° 0 mm 0 mps 730 mmHg 67%
    07:00 +18°C° 0 mm 0 mps 731 mmHg 64%
    08:00 +22°C° 0 mm 1 mps 731 mmHg 61%
    09:00 +23°C° 0 mm 1 mps 731 mmHg 57%
    10:00 +24°C° 0 mm 1 mps 731 mmHg 54%
    11:00 +25°C° 0 mm 1 mps 730 mmHg 52%
    12:00 +25°C° 0 mm 1 mps 730 mmHg 50%
    13:00 +26°C° 0 mm 1 mps 730 mmHg 48%
    14:00 +26°C° 0 mm 1 mps 730 mmHg 49%
    15:00 +26°C° 0 mm 1 mps 730 mmHg 50%
    16:00 +26°C° 0 mm 1 mps 729 mmHg 51%
    17:00 +25°C° 0 mm 1 mps 729 mmHg 57%
    18:00 +23°C° 0 mm 1 mps 729 mmHg 64%
    19:00 +22°C° 0 mm 1 mps 729 mmHg 70%
    20:00 +21°C° 0 mm 1 mps 729 mmHg 74%
    21:00 +19°C° 0 mm 1 mps 729 mmHg 77%
    22:00 +18°C° 0 mm 1 mps 729 mmHg 80%
    23:00 +18°C° 0 mm 1 mps 729 mmHg 81%
    Show more